When you browse on this site, cookies collect data to enhance your experience and personalize the content and advertising you see.
Visit our Privacy Policy to learn more. By continuing to use the site, you agree to this use of cookies and data.
  • In Österreich
  • Länderverzeichnis
  • Für 7 Tage
  • Wassertemperatur
  • Satellitenkarten
  • Wetterkarte
  • News
  • Widgets
  • user-avatar
    Anmelden

    Stündliche Wetter Uige

    Heute, 27 Juni, Donnerstag

    Zeit Temperatur Niederschläge Wind Luftdruck Luftfeuchtigkeit
    00:00 +18°C° 0 mm 1 m/S 692 mmHg 69%
    01:00 +16°C° 0 mm 1 m/S 692 mmHg 71%
    02:00 +16°C° 0 mm 1 m/S 692 mmHg 74%
    03:00 +15°C° 0 mm 1 m/S 692 mmHg 77%
    04:00 +15°C° 0 mm 1 m/S 691 mmHg 80%
    05:00 +15°C° 0 mm 1 m/S 691 mmHg 80%
    06:00 +15°C° 0 mm 1 m/S 692 mmHg 79%
    07:00 +16°C° 0 mm 1 m/S 692 mmHg 79%
    08:00 +21°C° 0 mm 1 m/S 693 mmHg 65%
    09:00 +25°C° 0 mm 1 m/S 694 mmHg 51%
    10:00 +29°C° 0 mm 1 m/S 694 mmHg 38%
    11:00 +31°C° 0 mm 1 m/S 694 mmHg 33%
    12:00 +33°C° 0 mm 1 m/S 694 mmHg 28%
    13:00 +36°C° 0 mm 1 m/S 693 mmHg 24%
    14:00 +35°C° 0 mm 1 m/S 693 mmHg 24%
    15:00 +34°C° 0 mm 1 m/S 692 mmHg 24%
    16:00 +34°C° 0 mm 2 m/S 691 mmHg 25%
    17:00 +30°C° 0 mm 2 m/S 691 mmHg 33%
    18:00 +27°C° 0 mm 1 m/S 691 mmHg 42%
    19:00 +23°C° 0 mm 1 m/S 691 mmHg 50%
    20:00 +22°C° 0 mm 1 m/S 692 mmHg 55%
    21:00 +21°C° 0 mm 1 m/S 692 mmHg 60%
    22:00 +20°C° 0 mm 1 m/S 692 mmHg 65%
    23:00 +19°C° 0 mm 1 m/S 692 mmHg 71%

    Morgen, 28 Juni, Freitag

    Zeit Temperatur Niederschläge Wind Luftdruck Luftfeuchtigkeit
    00:00 +18°C° 0 mm 1 m/S 692 mmHg 77%
    01:00 +15°C° 0 mm 0 m/S 692 mmHg 83%
    02:00 +15°C° 0 mm 0 m/S 691 mmHg 86%
    03:00 +15°C° 0 mm 1 m/S 691 mmHg 89%
    04:00 +15°C° 0 mm 1 m/S 691 mmHg 92%
    05:00 +16°C° 0 mm 1 m/S 691 mmHg 90%
    06:00 +16°C° 0 mm 1 m/S 691 mmHg 88%
    07:00 +16°C° 0 mm 1 m/S 692 mmHg 86%
    08:00 +21°C° 0 mm 1 m/S 693 mmHg 72%
    09:00 +25°C° 0 mm 1 m/S 693 mmHg 57%
    10:00 +27°C° 0 mm 0 m/S 694 mmHg 42%
    11:00 +31°C° 0 mm 1 m/S 694 mmHg 36%
    12:00 +33°C° 0 mm 1 m/S 693 mmHg 31%
    13:00 +35°C° 0 mm 1 m/S 693 mmHg 26%
    14:00 +35°C° 0 mm 1 m/S 692 mmHg 27%
    15:00 +35°C° 0 mm 2 m/S 691 mmHg 28%
    16:00 +34°C° 0 mm 2 m/S 691 mmHg 29%
    17:00 +30°C° 0 mm 1 m/S 691 mmHg 39%
    18:00 +27°C° 0 mm 1 m/S 691 mmHg 49%
    19:00 +21°C° 0 mm 0 m/S 691 mmHg 59%
    20:00 +20°C° 0 mm 0 m/S 691 mmHg 64%
    21:00 +19°C° 0 mm 0 m/S 692 mmHg 69%
    22:00 +18°C° 0 mm 0 m/S 692 mmHg 74%
    23:00 +19°C° 0 mm 1 m/S 692 mmHg 79%

    übermorgen, 29 Juni, Samstag

    Zeit Temperatur Niederschläge Wind Luftdruck Luftfeuchtigkeit
    00:00 +19°C° 0 mm 1 m/S 692 mmHg 83%
    01:00 +18°C° 0 mm 1 m/S 692 mmHg 87%
    02:00 +16°C° 0 mm 1 m/S 691 mmHg 89%
    03:00 +16°C° 0 mm 1 m/S 691 mmHg 91%
    04:00 +16°C° 0 mm 1 m/S 691 mmHg 94%
    05:00 +16°C° 0 mm 1 m/S 691 mmHg 92%
    06:00 +16°C° 0 mm 1 m/S 692 mmHg 90%
    07:00 +18°C° 0 mm 1 m/S 692 mmHg 89%
    08:00 +21°C° 0 mm 1 m/S 693 mmHg 74%
    09:00 +25°C° 0 mm 1 m/S 694 mmHg 59%
    10:00 +29°C° 0 mm 1 m/S 694 mmHg 44%
    11:00 +31°C° 0 mm 1 m/S 694 mmHg 39%
    12:00 +33°C° 0 mm 1 m/S 694 mmHg 33%
    13:00 +35°C° 0 mm 1 m/S 693 mmHg 28%
    14:00 +35°C° 0 mm 1 m/S 692 mmHg 28%
    15:00 +34°C° 0 mm 1 m/S 692 mmHg 28%
    16:00 +34°C° 0 mm 2 m/S 691 mmHg 29%
    17:00 +30°C° 0 mm 1 m/S 691 mmHg 37%
    18:00 +27°C° 0 mm 1 m/S 691 mmHg 46%
    19:00 +25°C° 0 mm 1 m/S 691 mmHg 54%
    20:00 +23°C° 0 mm 1 m/S 692 mmHg 59%
    21:00 +22°C° 0 mm 1 m/S 692 mmHg 64%
    22:00 +21°C° 0 mm 1 m/S 693 mmHg 68%
    23:00 +20°C° 0 mm 1 m/S 692 mmHg 74%

    30 Juni, Sonntag

    Zeit Temperatur Niederschläge Wind Luftdruck Luftfeuchtigkeit
    00:00 +19°C° 0 mm 1 m/S 692 mmHg 79%
    01:00 +16°C° 0 mm 0 m/S 692 mmHg 84%
    02:00 +16°C° 0 mm 1 m/S 692 mmHg 87%
    03:00 +16°C° 0 mm 1 m/S 692 mmHg 91%
    04:00 +15°C° 0 mm 1 m/S 691 mmHg 94%
    05:00 +16°C° 0 mm 1 m/S 692 mmHg 92%
    06:00 +16°C° 0 mm 1 m/S 693 mmHg 89%
    07:00 +18°C° 0 mm 1 m/S 693 mmHg 87%
    08:00 +21°C° 0 mm 1 m/S 694 mmHg 71%
    09:00 +25°C° 0 mm 1 m/S 694 mmHg 56%
    10:00 +28°C° 0 mm 2 m/S 695 mmHg 40%
    11:00 +30°C° 0 mm 2 m/S 694 mmHg 35%
    12:00 +32°C° 0 mm 2 m/S 694 mmHg 31%
    13:00 +35°C° 0 mm 2 m/S 693 mmHg 26%
    14:00 +34°C° 0 mm 2 m/S 693 mmHg 27%
    15:00 +34°C° 0 mm 2 m/S 692 mmHg 27%
    16:00 +34°C° 0 mm 2 m/S 692 mmHg 28%
    17:00 +30°C° 0 mm 2 m/S 692 mmHg 35%
    18:00 +27°C° 0 mm 1 m/S 692 mmHg 42%
    19:00 +24°C° 0 mm 1 m/S 691 mmHg 49%
    20:00 +23°C° 0 mm 1 m/S 692 mmHg 54%
    21:00 +22°C° 0 mm 1 m/S 692 mmHg 60%
    22:00 +20°C° 0 mm 1 m/S 692 mmHg 65%
    23:00 +20°C° 0 mm 1 m/S 692 mmHg 68%

    1 Juli, Montag

    Zeit Temperatur Niederschläge Wind Luftdruck Luftfeuchtigkeit
    00:00 +19°C° 0 mm 1 m/S 692 mmHg 71%
    01:00 +19°C° 0 mm 1 m/S 691 mmHg 74%
    02:00 +18°C° 0 mm 1 m/S 691 mmHg 77%
    03:00 +18°C° 0 mm 1 m/S 691 mmHg 79%
    04:00 +16°C° 0 mm 1 m/S 690 mmHg 81%
    05:00 +18°C° 0 mm 1 m/S 691 mmHg 79%
    06:00 +18°C° 0 mm 1 m/S 691 mmHg 77%
    07:00 +19°C° 0 mm 1 m/S 692 mmHg 75%
    08:00 +23°C° 0 mm 1 m/S 692 mmHg 60%
    09:00 +28°C° 0 mm 1 m/S 693 mmHg 45%
    10:00 +32°C° 0 mm 1 m/S 694 mmHg 30%
    11:00 +34°C° 0 mm 1 m/S 694 mmHg 26%
    12:00 +36°C° 0 mm 1 m/S 693 mmHg 22%
    13:00 +39°C° 0 mm 1 m/S 693 mmHg 18%
    14:00 +37°C° 0 mm 1 m/S 692 mmHg 18%
    15:00 +37°C° 0 mm 1 m/S 691 mmHg 19%
    16:00 +36°C° 0 mm 1 m/S 691 mmHg 20%
    17:00 +32°C° 0 mm 1 m/S 691 mmHg 31%
    18:00 +29°C° 0 mm 1 m/S 691 mmHg 42%
    19:00 +25°C° 0 mm 1 m/S 690 mmHg 53%
    20:00 +24°C° 0 mm 1 m/S 691 mmHg 59%
    21:00 +23°C° 0 mm 1 m/S 691 mmHg 64%
    22:00 +22°C° 0 mm 1 m/S 691 mmHg 69%
    23:00 +19°C° 0 mm 0 m/S 691 mmHg 73%

    2 Juli, Dienstag

    Zeit Temperatur Niederschläge Wind Luftdruck Luftfeuchtigkeit
    00:00 +18°C° 0 mm 0 m/S 691 mmHg 77%
    01:00 +17°C° 0 mm 0 m/S 691 mmHg 82%
    02:00 +16°C° 0 mm 0 m/S 690 mmHg 85%
    03:00 +16°C° 0 mm 0 m/S 690 mmHg 89%
    04:00 +16°C° 0 mm 1 m/S 690 mmHg 93%
    05:00 +18°C° 0 mm 1 m/S 690 mmHg 90%
    06:00 +18°C° 0 mm 1 m/S 691 mmHg 87%
    07:00 +19°C° 0 mm 1 m/S 691 mmHg 83%
    08:00 +23°C° 0 mm 1 m/S 692 mmHg 65%
    09:00 +28°C° 0 mm 1 m/S 693 mmHg 47%
    10:00 +32°C° 0 mm 2 m/S 693 mmHg 28%
    11:00 +35°C° 0 mm 2 m/S 693 mmHg 23%
    12:00 +36°C° 0 mm 2 m/S 692 mmHg 19%
    13:00 +38°C° 0 mm 2 m/S 691 mmHg 14%
    14:00 +37°C° 0 mm 2 m/S 691 mmHg 14%
    15:00 +37°C° 0 mm 2 m/S 690 mmHg 15%
    16:00 +37°C° 0 mm 2 m/S 690 mmHg 15%
    17:00 +32°C° 0 mm 1 m/S 690 mmHg 21%
    18:00 +29°C° 0 mm 1 m/S 690 mmHg 27%
    19:00 +25°C° 0 mm 1 m/S 690 mmHg 33%
    20:00 +24°C° 0 mm 1 m/S 690 mmHg 39%
    21:00 +23°C° 0 mm 1 m/S 690 mmHg 45%
    22:00 +22°C° 0 mm 1 m/S 691 mmHg 51%
    23:00 +19°C° 0 mm 0 m/S 691 mmHg 61%
    Mehr zeigen